When you browse on this site, cookies collect data to enhance your experience and personalize the content and advertising you see.
Visit our Privacy Policy to learn more. By continuing to use the site, you agree to this use of cookies and data.
  • In United Kingdom
  • List of Countries
  • For 7 days
  • Water Temperature
  • Weather Map
  • Weather Widgets
  • user-avatar
    Login

    Hourly Weather Kikwit

    Today, 29 January, Wednesday

    Time Temperature Precipitation Wind Pressure Humidity
    00:00 +23°C° 0 mm 0 mps 721 mmHg 71%
    01:00 +23°C° 0 mm 0 mps 721 mmHg 73%
    02:00 +22°C° 0 mm 0 mps 721 mmHg 75%
    03:00 +22°C° 0 mm 0 mps 720 mmHg 76%
    04:00 +22°C° 0 mm 0 mps 720 mmHg 78%
    05:00 +22°C° 0 mm 0 mps 721 mmHg 77%
    06:00 +23°C° 0 mm 0 mps 721 mmHg 76%
    07:00 +24°C° 0 mm 0 mps 722 mmHg 75%
    08:00 +27°C° 0 mm 0 mps 723 mmHg 66%
    09:00 +30°C° 0 mm 0 mps 723 mmHg 57%
    10:00 +33°C° 0 mm 0 mps 724 mmHg 47%
    11:00 +33°C° 0 mm 0 mps 723 mmHg 43%
    12:00 +34°C° 0 mm 0 mps 722 mmHg 39%
    13:00 +37°C° 0 mm 1 mps 721 mmHg 35%
    14:00 +36°C° 0 mm 1 mps 721 mmHg 39%
    15:00 +35°C° 0 mm 1 mps 720 mmHg 44%
    16:00 +33°C° 0 mm 1 mps 720 mmHg 48%
    17:00 +32°C° 0 mm 1 mps 720 mmHg 54%
    18:00 +30°C° 0 mm 1 mps 720 mmHg 60%
    19:00 +28°C° 0 mm 1 mps 721 mmHg 66%
    20:00 +28°C° 0 mm 1 mps 721 mmHg 70%
    21:00 +27°C° 0 mm 1 mps 722 mmHg 73%
    22:00 +26°C° 0 mm 1 mps 722 mmHg 77%
    23:00 +26°C° 0 mm 1 mps 722 mmHg 78%

    Tomorrow, 30 January, Thursday

    Time Temperature Precipitation Wind Pressure Humidity
    00:00 +26°C° 0 mm 1 mps 722 mmHg 79%
    01:00 +26°C° 0 mm 1 mps 722 mmHg 80%
    02:00 +26°C° 0 mm 1 mps 722 mmHg 81%
    03:00 +25°C° 0 mm 1 mps 722 mmHg 82%
    04:00 +25°C° 0 mm 1 mps 721 mmHg 83%
    05:00 +25°C° 0 mm 1 mps 722 mmHg 83%
    06:00 +26°C° 0 mm 1 mps 722 mmHg 82%
    07:00 +26°C° 0 mm 1 mps 723 mmHg 81%
    08:00 +27°C° 0 mm 1 mps 723 mmHg 76%
    09:00 +29°C° 0 mm 2 mps 723 mmHg 70%
    10:00 +30°C° 0 mm 2 mps 723 mmHg 64%
    11:00 +34°C° 0 mm 2 mps 723 mmHg 56%
    12:00 +35°C° 0 mm 1 mps 722 mmHg 47%
    13:00 +37°C° 0 mm 1 mps 722 mmHg 39%
    14:00 +36°C° 0.1 mm 1 mps 721 mmHg 42%
    15:00 +35°C° 0.1 mm 1 mps 720 mmHg 45%
    16:00 +34°C° 0.1 mm 1 mps 720 mmHg 48%
    17:00 +31°C° 1 mm 1 mps 720 mmHg 63%
    18:00 +28°C° 1 mm 2 mps 720 mmHg 78%
    19:00 +25°C° 1 mm 2 mps 721 mmHg 93%
    20:00 +25°C° 0.3 mm 2 mps 721 mmHg 93%
    21:00 +24°C° 0.3 mm 1 mps 722 mmHg 94%
    22:00 +24°C° 0.3 mm 1 mps 723 mmHg 94%
    23:00 +24°C° 0.1 mm 1 mps 722 mmHg 93%

    Day after tomorrow, 31 January, Friday

    Time Temperature Precipitation Wind Pressure Humidity
    00:00 +24°C° 0.1 mm 1 mps 722 mmHg 93%
    01:00 +24°C° 0.1 mm 1 mps 722 mmHg 92%
    02:00 +24°C° 0 mm 1 mps 722 mmHg 92%
    03:00 +22°C° 0 mm 0 mps 722 mmHg 92%
    04:00 +22°C° 0 mm 0 mps 722 mmHg 91%
    05:00 +24°C° 0.6 mm 1 mps 722 mmHg 92%
    06:00 +24°C° 0.6 mm 1 mps 723 mmHg 93%
    07:00 +24°C° 0.6 mm 1 mps 723 mmHg 94%
    08:00 +25°C° 0.1 mm 1 mps 724 mmHg 92%
    09:00 +25°C° 0.1 mm 1 mps 724 mmHg 91%
    10:00 +25°C° 0.1 mm 1 mps 724 mmHg 89%
    11:00 +27°C° 0.1 mm 1 mps 724 mmHg 82%
    12:00 +28°C° 0.1 mm 1 mps 723 mmHg 74%
    13:00 +29°C° 0.1 mm 1 mps 723 mmHg 67%
    14:00 +29°C° 0 mm 1 mps 722 mmHg 65%
    15:00 +30°C° 0 mm 1 mps 721 mmHg 64%
    16:00 +30°C° 0 mm 1 mps 720 mmHg 62%
    17:00 +28°C° 0 mm 1 mps 720 mmHg 68%
    18:00 +25°C° 0 mm 0 mps 721 mmHg 75%
    19:00 +23°C° 0 mm 0 mps 721 mmHg 81%
    20:00 +23°C° 0 mm 0 mps 721 mmHg 84%
    21:00 +22°C° 0 mm 0 mps 722 mmHg 87%
    22:00 +22°C° 0 mm 0 mps 722 mmHg 90%
    23:00 +22°C° 0 mm 0 mps 722 mmHg 90%

    1 February, Saturday

    Time Temperature Precipitation Wind Pressure Humidity
    00:00 +22°C° 0 mm 0 mps 722 mmHg 91%
    01:00 +22°C° 0 mm 0 mps 722 mmHg 91%
    02:00 +22°C° 0 mm 0 mps 722 mmHg 91%
    03:00 +22°C° 0 mm 0 mps 721 mmHg 91%
    04:00 +22°C° 0 mm 0 mps 721 mmHg 90%
    05:00 +22°C° 0 mm 0 mps 722 mmHg 89%
    06:00 +22°C° 0 mm 0 mps 722 mmHg 88%
    07:00 +23°C° 0 mm 0 mps 723 mmHg 87%
    08:00 +25°C° 0 mm 0 mps 723 mmHg 77%
    09:00 +29°C° 0 mm 1 mps 723 mmHg 67%
    10:00 +31°C° 0 mm 1 mps 724 mmHg 56%
    11:00 +32°C° 0 mm 1 mps 723 mmHg 51%
    12:00 +34°C° 0 mm 1 mps 722 mmHg 46%
    13:00 +35°C° 0 mm 1 mps 722 mmHg 41%
    14:00 +35°C° 0 mm 1 mps 721 mmHg 42%
    15:00 +34°C° 0 mm 1 mps 720 mmHg 42%
    16:00 +34°C° 0 mm 1 mps 720 mmHg 43%
    17:00 +32°C° 0 mm 1 mps 720 mmHg 51%
    18:00 +30°C° 0 mm 1 mps 720 mmHg 59%
    19:00 +27°C° 0 mm 1 mps 721 mmHg 66%
    20:00 +27°C° 0 mm 1 mps 721 mmHg 69%
    21:00 +26°C° 0 mm 1 mps 722 mmHg 73%
    22:00 +26°C° 0 mm 1 mps 722 mmHg 76%
    23:00 +25°C° 0 mm 1 mps 722 mmHg 77%

    2 February, Sunday

    Time Temperature Precipitation Wind Pressure Humidity
    00:00 +25°C° 0 mm 1 mps 721 mmHg 79%
    01:00 +25°C° 0 mm 1 mps 721 mmHg 80%
    02:00 +23°C° 0 mm 0 mps 721 mmHg 81%
    03:00 +22°C° 0 mm 0 mps 721 mmHg 82%
    04:00 +22°C° 0 mm 0 mps 721 mmHg 83%
    05:00 +22°C° 0 mm 0 mps 721 mmHg 81%
    06:00 +23°C° 0 mm 0 mps 722 mmHg 80%
    07:00 +23°C° 0 mm 0 mps 722 mmHg 78%
    08:00 +27°C° 0 mm 1 mps 723 mmHg 72%
    09:00 +29°C° 0 mm 1 mps 723 mmHg 65%
    10:00 +31°C° 0 mm 1 mps 723 mmHg 58%
    11:00 +33°C° 0 mm 1 mps 723 mmHg 52%
    12:00 +34°C° 0 mm 1 mps 722 mmHg 47%
    13:00 +36°C° 0 mm 1 mps 721 mmHg 41%
    14:00 +35°C° 0 mm 1 mps 721 mmHg 43%
    15:00 +35°C° 0 mm 1 mps 720 mmHg 46%
    16:00 +34°C° 0 mm 1 mps 719 mmHg 48%
    17:00 +32°C° 0.1 mm 1 mps 719 mmHg 56%
    18:00 +29°C° 0.1 mm 1 mps 720 mmHg 64%
    19:00 +27°C° 0.1 mm 1 mps 720 mmHg 72%
    20:00 +26°C° 0.6 mm 1 mps 721 mmHg 76%
    21:00 +24°C° 0.6 mm 0 mps 721 mmHg 81%
    22:00 +23°C° 0.6 mm 0 mps 722 mmHg 86%
    23:00 +22°C° 0.7 mm 0 mps 722 mmHg 88%

    3 February, Monday

    Time Temperature Precipitation Wind Pressure Humidity
    00:00 +22°C° 0.7 mm 0 mps 722 mmHg 90%
    01:00 +22°C° 0.7 mm 0 mps 722 mmHg 93%
    02:00 +22°C° 0.7 mm 0 mps 721 mmHg 93%
    03:00 +22°C° 0.7 mm 0 mps 721 mmHg 94%
    04:00 +22°C° 0.7 mm 0 mps 721 mmHg 95%
    05:00 +22°C° 0.3 mm 0 mps 722 mmHg 94%
    06:00 +22°C° 0.3 mm 0 mps 722 mmHg 94%
    07:00 +23°C° 0.3 mm 0 mps 723 mmHg 94%
    08:00 +24°C° 0.1 mm 0 mps 723 mmHg 89%
    09:00 +25°C° 0.1 mm 0 mps 723 mmHg 84%
    10:00 +28°C° 0.1 mm 1 mps 723 mmHg 79%
    11:00 +29°C° 0.2 mm 1 mps 722 mmHg 71%
    12:00 +31°C° 0.2 mm 1 mps 722 mmHg 63%
    13:00 +34°C° 0.2 mm 2 mps 721 mmHg 54%
    14:00 +32°C° 0.7 mm 1 mps 720 mmHg 58%
    15:00 +31°C° 0.7 mm 1 mps 720 mmHg 62%
    16:00 +31°C° 0.7 mm 1 mps 719 mmHg 66%
    17:00 +29°C° 0.2 mm 1 mps 719 mmHg 71%
    18:00 +28°C° 0.2 mm 1 mps 719 mmHg 76%
    19:00 +24°C° 0.2 mm 0 mps 720 mmHg 81%
    20:00 +24°C° 0 mm 0 mps 720 mmHg 83%
    21:00 +24°C° 0 mm 0 mps 721 mmHg 84%
    22:00 +23°C° 0 mm 0 mps 721 mmHg 86%
    23:00 +23°C° 0.1 mm 0 mps 721 mmHg 87%
    Show more